Location: Pabrico
(37.5827°N, 122.0063°W)
Time: 09:52:08
(UTC+00:00)

Cosmos 1933 Rocket - Visible Passes

Search period start: 24 July 2024 00:00
Search period end: 03 August 2024 00:00
Orbit: 604 x 625 km, 82.5° (Epoch: 23 July)

Date Brightness Start Highest point End Pass type
(mag) Time Alt. Az. Time Alt. Az. Time Alt. Az.
24 Jul 5.5 11:58:45 10° SSE 12:02:36 30° E 12:06:30 10° NNE visible
25 Jul 4.3 12:14:09 10° S 12:18:30 57° E 12:22:51 10° NNE visible
26 Jul 3.6 12:30:02 10° SSW 12:34:27 75° W 12:38:54 10° N visible
27 Jul 6.3 11:10:30 10° ESE 11:13:06 15° E 11:15:43 10° NE visible
28 Jul 5.5 11:25:06 10° SSE 11:28:52 28° E 11:32:40 10° NNE visible
29 Jul 4.3 11:40:26 10° S 11:44:44 52° E 11:49:03 10° NNE visible
30 Jul 3.5 11:56:27 11° S 12:00:41 81° W 12:05:07 10° N visible
31 Jul 6.3 10:37:01 10° ESE 10:39:22 14° E 10:41:42 10° NE visible
31 Jul 4.0 12:12:56 13° SSW 12:16:41 42° W 12:20:55 10° N visible
01 Aug 5.5 10:52:15 14° SE 10:55:07 26° E 10:58:47 10° NNE visible
01 Aug 4.9 12:29:21 11° SW 12:32:48 23° WNW 12:36:22 10° NNW visible
02 Aug 4.4 11:08:39 24° SSE 11:10:57 48° E 11:15:13 10° NNE visible
